Grizzly Air Cargo 5378


PAKN
King Salmon Airport
King Salmon, Alaska, US
PABE
Bethel Airport
Bethel, Alaska, US

Activity Log

Date Flight Route Aircraft Duration
No Flights Yet

Route Details

Aircraft Information
Primary: Saab 340AF
Backup: Not Available
Route Data
Distance: 208nm
Sched. Duration: 1h 00m
Avg. Duration: 0h 00m (-100m)
Times Flown: 0
Recm'd Route: AKN J123 BET
Planned Altitude: 20,000ft
Origin Wx: PAKN 222054Z 09021G29KT 10SM BKN100 08/01 A3000 RMK AO2 PK WND 09030/2009 SLP157 T00780011
Dest. Wx: PABE 222053Z 04017G23KT 10SM CLR M01/M06 A3011 RMK AO2 SLP197 T10061061 58016
Notes:

Financial History
Total Freight: 0lbs
Average Load: 0lbs/flt
Fuel Used: 0lbs
Avg. Fuel Used: 0lbs/flt
Fuel Expense: $0
Avg. Fuel Expense: $0
Avg. Fuel Cost: $0/lbs
Total Gross Income: $0
Pilot Pay: $0
Total Expenses: $0
Total Revenue: $0
Average Revenue: $0